Location: Rounton
(54.4000°N, 1.3500°W)
Time: 13:44:37
(UTC+00:00)

Transit 2A - Pass Details

Date: 06 December 2021
Orbit: 591 x 967 km, 66.7° (Epoch: 21 January)

Event Time Altitude Azimuth Distance (km) Brightness Sun altitude
Rises 04:24:10 0° 296° (WNW) 3,570 - -31.5°
Reaches altitude 10° 04:27:05 10° 309° (NW) 2,665 - -31.0°
Exits shadow 04:31:48 27° 357° (N) 1,769 7.8 -30.4°
Maximum altitude 04:32:22 27° 6° (N) 1,757 7.8 -30.3°
Drops below altitude 10° 04:37:45 10° 63° (ENE) 2,713 9.6 -29.5°
Sets 04:40:45 0° 75° (ENE) 3,645 10.6 -29.1°
